Вернуться в каталог

ONEWEB-0296

АктивенСвязьPO
NORAD 49085·PAYLOAD·🇬🇧 United Kingdom

Запущен Aug 21, 2021 с Baikonur Cosmodrome

Loading…

Ближайшие Пролёты (ближайшие 24 часа)

TLE

СвежийSource: CelesTrak SupGP

Эпоха: Sep 14, 2026, 23:19 UTC

1 49085C 21075L   26257.97201807  .00001330  00000+0  37016-2 0  2579
2 49085  87.8985 332.8431 0001708 109.2097 283.6827 13.12442963    13

Отслеживайте ONEWEB-0296 в реальном времени с AllMySat

Download on the App Store